| time (UTC) | temp F | wind direction | speed MPH | gust MPH | rain 1hr in | rain 24hr in | rain mn in | humidity % | barometer mb |
| 20260510125003 | 53 | 50 | 6.0 | 17.0 | 0.00 | 0.00 | 0.00 | 75 | 1016.0 |
| 20260510124002 | 53 | 47 | 5.0 | 15.0 | 0.00 | 0.00 | 0.00 | 75 | 1016.0 |
| 20260510123003 | 53 | 47 | 6.0 | 16.0 | 0.00 | 0.00 | 0.00 | 75 | 1016.0 |
| 20260510122003 | 53 | 48 | 7.0 | 14.0 | 0.00 | 0.00 | 0.00 | 76 | 1016.1 |
| 20260510120003 | 53 | 47 | 6.0 | 17.0 | 0.00 | 0.00 | 0.00 | 77 | 1016.2 |
| 20260510115003 | 52 | 36 | 6.0 | 15.0 | 0.00 | 0.00 | 0.00 | 78 | 1016.3 |
| 20260510114003 | 53 | 63 | 6.0 | 15.0 | 0.00 | 0.00 | 0.00 | 78 | 1016.4 |
| 20260510113003 | 52 | 59 | 6.0 | 15.0 | 0.00 | 0.00 | 0.00 | 79 | 1016.5 |
| 20260510112003 | 52 | 41 | 7.0 | 14.0 | 0.00 | 0.00 | 0.00 | 80 | 1016.6 |
| 20260510111002 | 52 | 53 | 6.0 | 15.0 | 0.00 | 0.00 | 0.00 | 79 | 1016.7 |
| 20260510105003 | 53 | 41 | 7.0 | 15.0 | 0.00 | 0.00 | 0.00 | 78 | 1016.8 |
| 20260510103003 | 53 | 32 | 7.0 | 17.0 | 0.00 | 0.00 | 0.00 | 76 | 1016.7 |
| 20260510102003 | 53 | 46 | 8.0 | 19.0 | 0.00 | 0.00 | 0.00 | 76 | 1016.7 |
| 20260510100003 | 54 | 62 | 7.0 | 15.0 | 0.00 | 0.00 | 0.00 | 75 | 1016.8 |
| 20260510095003 | 53 | 66 | 8.0 | 18.0 | 0.00 | 0.00 | 0.00 | 76 | 1016.7 |
| 20260510094003 | 53 | 56 | 6.0 | 19.0 | 0.00 | 0.00 | 0.00 | 77 | 1016.8 |
| 20260510093003 | 54 | 53 | 8.0 | 17.0 | 0.00 | 0.00 | 0.00 | 79 | 1016.8 |
| 20260510092003 | 53 | 46 | 8.0 | 17.0 | 0.00 | 0.00 | 0.00 | 79 | 1016.9 |
| 20260510091002 | 53 | 47 | 8.0 | 16.0 | 0.00 | 0.00 | 0.00 | 78 | 1017.0 |
| 20260510090004 | 52 | 47 | 7.0 | 21.0 | 0.00 | 0.00 | 0.00 | 80 | 1017.2 |
| 20260510085003 | 51 | 45 | 6.0 | 22.0 | 0.00 | 0.00 | 0.00 | 80 | 1017.2 |
| 20260510084002 | 51 | 53 | 6.0 | 14.0 | 0.00 | 0.00 | 0.00 | 81 | 1017.3 |
| 20260510083002 | 51 | 40 | 6.0 | 14.0 | 0.00 | 0.00 | 0.00 | 81 | 1017.3 |
| 20260510082003 | 51 | 53 | 6.0 | 18.0 | 0.00 | 0.00 | 0.00 | 81 | 1017.3 |
| 20260510081004 | 51 | 58 | 7.0 | 19.0 | 0.00 | 0.00 | 0.00 | 81 | 1017.3 |
| 20260510080002 | 51 | 48 | 7.0 | 15.0 | 0.00 | 0.00 | 0.00 | 82 | 1017.3 |
| 20260510075002 | 51 | 41 | 7.0 | 17.0 | 0.00 | 0.00 | 0.00 | 83 | 1017.2 |
| 20260510074002 | 50 | 51 | 6.0 | 16.0 | 0.00 | 0.00 | 0.00 | 84 | 1017.3 |
| 20260510073002 | 50 | 34 | 5.0 | 16.0 | 0.00 | 0.00 | 0.00 | 84 | 1017.3 |
| 20260510072003 | 50 | 34 | 6.0 | 15.0 | 0.00 | 0.00 | 0.00 | 85 | 1017.3 |
| 20260510071003 | 50 | 32 | 6.0 | 16.0 | 0.00 | 0.00 | 0.00 | 85 | 1017.2 |
| 20260510070002 | 50 | 40 | 5.0 | 15.0 | 0.00 | 0.00 | 0.00 | 86 | 1017.2 |
| 20260510065002 | 50 | 37 | 6.0 | 15.0 | 0.00 | 0.00 | 0.00 | 86 | 1017.1 |
| 20260510064003 | 49 | 44 | 4.0 | 17.0 | 0.00 | 0.00 | 0.00 | 87 | 1017.1 |
| 20260510063003 | 49 | 43 | 4.0 | 11.0 | 0.00 | 0.00 | 0.00 | 87 | 1017.0 |
| 20260510062003 | 49 | 35 | 6.0 | 13.0 | 0.00 | 0.00 | 0.00 | 88 | 1017.0 |
| 20260510061004 | 49 | 28 | 5.0 | 15.0 | 0.00 | 0.00 | 0.00 | 88 | 1017.0 |
| 20260510060003 | 49 | 34 | 4.0 | 14.0 | 0.00 | 0.00 | 0.00 | 88 | 1016.9 |
| 20260510055002 | 48 | 45 | 5.0 | 12.0 | 0.00 | 0.00 | 0.00 | 89 | 1016.9 |
| 20260510054003 | 48 | 34 | 6.0 | 15.0 | 0.00 | 0.00 | 0.00 | 89 | 1016.9 |
| 20260510053003 | 48 | 27 | 6.0 | 16.0 | 0.00 | 0.00 | 0.00 | 89 | 1016.9 |
| 20260510052003 | 48 | 26 | 5.0 | 16.0 | 0.00 | 0.00 | 0.00 | 89 | 1016.9 |
| 20260510051004 | 48 | 21 | 3.0 | 10.0 | 0.00 | 0.00 | 0.00 | 90 | 1016.9 |
| 20260510050003 | 48 | 33 | 4.0 | 11.0 | 0.00 | 0.00 | 0.00 | 90 | 1016.9 |
| 20260510045003 | 48 | 37 | 4.0 | 11.0 | 0.00 | 0.00 | 0.00 | 90 | 1016.8 |
| 20260510044003 | 48 | 34 | 5.0 | 14.0 | 0.00 | 0.00 | 0.00 | 90 | 1016.9 |
| 20260510043002 | 48 | 38 | 6.0 | 10.0 | 0.00 | 0.00 | 0.00 | 90 | 1016.8 |
| 20260510042003 | 48 | 29 | 5.0 | 15.0 | 0.00 | 0.00 | 0.00 | 90 | 1016.9 |
| 20260510041004 | 48 | 28 | 5.0 | 12.0 | 0.00 | 0.00 | 0.00 | 90 | 1017.0 |
| 20260510040004 | 48 | 26 | 5.0 | 15.0 | 0.00 | 0.00 | 0.00 | 90 | 1017.0 |
| 20260510032003 | 48 | 29 | 4.0 | 12.0 | 0.00 | 0.00 | 0.00 | 90 | 1017.2 |
| 20260510031003 | 48 | 34 | 6.0 | 11.0 | 0.00 | 0.00 | 0.00 | 90 | 1017.2 |
| 20260510030003 | 48 | 31 | 5.0 | 14.0 | 0.00 | 0.00 | 0.00 | 91 | 1017.2 |
| 20260510025003 | 48 | 13 | 5.0 | 11.0 | 0.00 | 0.00 | 0.00 | 91 | 1017.3 |
| 20260510024003 | 48 | 29 | 5.0 | 12.0 | 0.00 | 0.00 | 0.00 | 91 | 1017.3 |
| 20260510023003 | 48 | 17 | 5.0 | 13.0 | 0.00 | 0.00 | 0.00 | 91 | 1017.4 |
| 20260510021002 | 48 | 25 | 3.0 | 10.0 | 0.00 | 0.00 | 0.00 | 91 | 1017.4 |
| 20260510020002 | 48 | 18 | 3.0 | 10.0 | 0.00 | 0.00 | 0.00 | 91 | 1017.5 |
| 20260510015003 | 48 | 30 | 4.0 | 10.0 | 0.00 | 0.00 | 0.00 | 91 | 1017.5 |
| 20260510014004 | 48 | 25 | 4.0 | 11.0 | 0.00 | 0.00 | 0.00 | 90 | 1017.6 |
| 20260510013003 | 48 | 20 | 4.0 | 10.0 | 0.00 | 0.00 | 0.00 | 90 | 1017.4 |
| 20260510012003 | 48 | 24 | 4.0 | 11.0 | 0.00 | 0.00 | 0.00 | 90 | 1017.3 |
| 20260510005003 | 49 | 24 | 4.0 | 10.0 | 0.00 | 0.00 | 0.00 | 88 | 1017.4 |
| 20260510003003 | 49 | 34 | 4.0 | 14.0 | 0.00 | 0.00 | 0.00 | 87 | 1017.4 |
| 20260510002002 | 50 | 27 | 4.0 | 12.0 | 0.00 | 0.00 | 0.00 | 86 | 1017.5 |
| 20260510001003 | 50 | 14 | 5.0 | 13.0 | 0.00 | 0.00 | 0.00 | 84 | 1017.4 |
| 20260510000003 | 50 | 20 | 5.0 | 11.0 | 0.00 | 0.00 | 0.00 | 80 | 1017.5 |
| 20260509234002 | 51 | 41 | 4.0 | 10.0 | 0.00 | 0.00 | 0.00 | 71 | 1017.5 |
| 20260509233003 | 52 | 38 | 4.0 | 13.0 | 0.00 | 0.00 | 0.00 | 68 | 1017.4 |
| 20260509232003 | 53 | 34 | 3.0 | 11.0 | 0.00 | 0.00 | 0.00 | 66 | 1017.4 |
| 20260509231002 | 53 | 30 | 3.0 | 10.0 | 0.00 | 0.00 | 0.00 | 67 | 1017.4 |
| 20260509230003 | 54 | 36 | 3.0 | 8.0 | 0.00 | 0.00 | 0.00 | 66 | 1017.4 |
| 20260509225002 | 54 | 54 | 2.0 | 11.0 | 0.00 | 0.00 | 0.00 | 66 | 1017.3 |
| 20260509224003 | 54 | 39 | 1.0 | 5.0 | 0.00 | 0.00 | 0.00 | 65 | 1017.4 |
| 20260509223003 | 54 | 57 | 2.0 | 7.0 | 0.00 | 0.00 | 0.00 | 64 | 1017.2 |
| 20260509222002 | 55 | 43 | 1.0 | 6.0 | 0.00 | 0.00 | 0.00 | 63 | 1017.2 |
| 20260509221003 | 55 | 50 | 0.0 | 4.0 | 0.00 | 0.00 | 0.00 | 62 | 1017.4 |
| 20260509220004 | 56 | 57 | 0.0 | 3.0 | 0.00 | 0.00 | 0.00 | 61 | 1017.4 |
| 20260509215003 | 56 | 60 | 1.0 | 5.0 | 0.00 | 0.00 | 0.00 | 60 | 1017.2 |
| 20260509213003 | 57 | 27 | 1.0 | 3.0 | 0.00 | 0.00 | 0.00 | 58 | 1017.0 |
| 20260509212002 | 57 | 27 | 1.0 | 3.0 | 0.00 | 0.00 | 0.00 | 57 | 1016.8 |
| 20260509211003 | 57 | 0 | 0.0 | 4.0 | 0.00 | 0.00 | 0.00 | 56 | 1016.8 |
| 20260509210003 | 58 | 107 | 0.0 | 2.0 | 0.00 | 0.00 | 0.00 | 55 | 1016.9 |
| 20260509205003 | 58 | 108 | 1.0 | 4.0 | 0.00 | 0.00 | 0.00 | 55 | 1016.8 |
| 20260509204003 | 58 | 115 | 1.0 | 3.0 | 0.00 | 0.00 | 0.00 | 54 | 1016.8 |
| 20260509203003 | 58 | 94 | 1.0 | 4.0 | 0.00 | 0.00 | 0.00 | 54 | 1016.6 |
| 20260509202002 | 59 | 79 | 1.0 | 5.0 | 0.00 | 0.00 | 0.00 | 53 | 1016.6 |
| 20260509201003 | 59 | 90 | 2.0 | 4.0 | 0.00 | 0.00 | 0.00 | 52 | 1016.4 |
| 20260509200003 | 59 | 93 | 2.0 | 6.0 | 0.00 | 0.00 | 0.00 | 52 | 1016.3 |
| 20260509195004 | 60 | 81 | 2.0 | 6.0 | 0.00 | 0.00 | 0.00 | 51 | 1016.3 |
| 20260509194003 | 60 | 80 | 2.0 | 7.0 | 0.00 | 0.00 | 0.00 | 51 | 1016.1 |
| 20260509193003 | 61 | 82 | 2.0 | 8.0 | 0.00 | 0.00 | 0.00 | 50 | 1016.0 |
| 20260509192003 | 61 | 102 | 3.0 | 7.0 | 0.00 | 0.00 | 0.00 | 50 | 1015.9 |
| 20260509191003 | 62 | 104 | 4.0 | 11.0 | 0.00 | 0.00 | 0.00 | 50 | 1015.9 |
| 20260509190003 | 62 | 107 | 3.0 | 9.0 | 0.00 | 0.00 | 0.00 | 51 | 1015.9 |
| 20260509185004 | 63 | 108 | 4.0 | 8.0 | 0.00 | 0.00 | 0.00 | 51 | 1015.7 |
| 20260509184003 | 63 | 96 | 4.0 | 11.0 | 0.00 | 0.00 | 0.00 | 51 | 1015.6 |
| 20260509183003 | 64 | 106 | 4.0 | 10.0 | 0.00 | 0.00 | 0.00 | 52 | 1015.6 |
| 20260509182003 | 64 | 101 | 5.0 | 11.0 | 0.00 | 0.00 | 0.00 | 52 | 1015.5 |
| 20260509181004 | 64 | 112 | 6.0 | 12.0 | 0.00 | 0.00 | 0.00 | 52 | 1015.3 |
| 20260509180004 | 65 | 107 | 6.0 | 12.0 | 0.00 | 0.00 | 0.00 | 52 | 1015.4 |
| 20260509174003 | 65 | 108 | 5.0 | 12.0 | 0.00 | 0.00 | 0.00 | 51 | 1015.1 |
| 20260509172003 | 67 | 106 | 4.0 | 9.0 | 0.00 | 0.00 | 0.00 | 48 | 1015.0 |
| 20260509171004 | 68 | 102 | 4.0 | 10.0 | 0.00 | 0.00 | 0.00 | 46 | 1015.2 |
| 20260509170003 | 68 | 84 | 4.0 | 8.0 | 0.00 | 0.00 | 0.00 | 46 | 1015.2 |
| 20260509165003 | 68 | 78 | 4.0 | 10.0 | 0.00 | 0.00 | 0.00 | 46 | 1015.2 |
| 20260509164003 | 68 | 67 | 4.0 | 11.0 | 0.00 | 0.00 | 0.00 | 45 | 1015.1 |
| 20260509163002 | 68 | 72 | 5.0 | 11.0 | 0.00 | 0.00 | 0.00 | 45 | 1015.1 |
| 20260509162004 | 68 | 69 | 3.0 | 9.0 | 0.00 | 0.00 | 0.00 | 45 | 1015.2 |
| 20260509161004 | 67 | 77 | 4.0 | 9.0 | 0.00 | 0.00 | 0.00 | 46 | 1015.2 |
| 20260509160003 | 67 | 88 | 5.0 | 11.0 | 0.00 | 0.00 | 0.00 | 47 | 1015.3 |
| 20260509155002 | 68 | 84 | 3.0 | 12.0 | 0.00 | 0.00 | 0.00 | 45 | 1015.4 |
| 20260509154003 | 68 | 79 | 3.0 | 7.0 | 0.00 | 0.00 | 0.00 | 46 | 1015.4 |
| 20260509153004 | 68 | 72 | 5.0 | 9.0 | 0.00 | 0.00 | 0.00 | 44 | 1015.6 |
| 20260509152003 | 68 | 80 | 4.0 | 10.0 | 0.00 | 0.00 | 0.00 | 44 | 1015.6 |
| 20260509151003 | 69 | 90 | 4.0 | 10.0 | 0.00 | 0.00 | 0.00 | 44 | 1015.4 |
| 20260509150003 | 68 | 83 | 3.0 | 9.0 | 0.00 | 0.00 | 0.00 | 46 | 1015.4 |
| 20260509144003 | 68 | 76 | 4.0 | 10.0 | 0.00 | 0.00 | 0.00 | 45 | 1015.4 |
| 20260509143003 | 69 | 63 | 3.0 | 9.0 | 0.00 | 0.00 | 0.00 | 45 | 1015.2 |
| 20260509142003 | 68 | 66 | 5.0 | 9.0 | 0.00 | 0.00 | 0.00 | 44 | 1015.2 |
| 20260509141003 | 68 | 104 | 4.0 | 13.0 | 0.00 | 0.00 | 0.00 | 44 | 1015.3 |
| 20260509140004 | 68 | 90 | 4.0 | 9.0 | 0.00 | 0.00 | 0.00 | 44 | 1015.3 |
| 20260509135003 | 68 | 107 | 4.0 | 13.0 | 0.00 | 0.00 | 0.00 | 42 | 1015.4 |
| 20260509134003 | 68 | 106 | 4.0 | 10.0 | 0.00 | 0.00 | 0.00 | 45 | 1015.5 |
| 20260509133004 | 68 | 36 | 5.0 | 9.0 | 0.00 | 0.00 | 0.00 | 46 | 1015.5 |
| 20260509132002 | 68 | 78 | 4.0 | 11.0 | 0.00 | 0.00 | 0.00 | 46 | 1015.6 |
| 20260509131003 | 68 | 106 | 4.0 | 13.0 | 0.00 | 0.00 | 0.00 | 48 | 1015.7 |